Location: ???????
(52.3000°N, 54.4667°E)
Time: 02:45:28
(UTC+00:00)

COBE Rocket - Pass Details

Date: 24 January 2020
Orbit: 681 x 781 km, 97.1° (Epoch: 22 February)

Event Time Altitude Azimuth Distance (km) Brightness Sun altitude
Rises 13:44:00 0° 11° (N) 3,248 6.9 -7.8°
Reaches altitude 10° 13:46:19 10° 10° (N) 2,328 6.2 -8.1°
Maximum altitude 13:51:28 75° 286° (WNW) 811 4.3 -8.9°
Drops below altitude 10° 13:56:37 10° 202° (SSW) 2,333 7.1 -9.6°
Sets 13:58:56 0° 201° (SSW) 3,256 7.9 -9.9°
